TimeEDT,TemperatureF,Dew PointF,Humidity,Sea Level PressureIn,VisibilityMPH,Wind Direction,Wind SpeedMPH,Gust SpeedMPH,PrecipitationIn,Events,Conditions,WindDirDegrees,DateUTC
12:51 AM,41.0,36.0,82,30.18,10.0,SSW,10.4,-,N/A,,Clear,200,2012-10-08 04:51:00
1:51 AM,39.9,35.1,83,30.19,10.0,SW,4.6,-,N/A,,Clear,220,2012-10-08 05:51:00
2:51 AM,37.9,35.1,89,30.22,10.0,SW,5.8,-,N/A,,Partly Cloudy,220,2012-10-08 06:51:00
3:51 AM,37.9,34.0,86,30.21,10.0,SSW,6.9,-,N/A,,Partly Cloudy,210,2012-10-08 07:51:00
4:51 AM,39.0,34.0,82,30.22,10.0,SSW,5.8,-,N/A,,Mostly Cloudy,200,2012-10-08 08:51:00
5:51 AM,37.9,34.0,86,30.22,10.0,South,6.9,-,N/A,,Mostly Cloudy,190,2012-10-08 09:51:00
6:51 AM,37.0,33.1,86,30.24,10.0,SSW,4.6,-,N/A,,Scattered Clouds,200,2012-10-08 10:51:00
7:51 AM,37.9,34.0,86,30.26,10.0,South,5.8,-,N/A,,Mostly Cloudy,190,2012-10-08 11:51:00
8:51 AM,39.2,35.6,87,30.25,10.0,SSW,6.9,-,N/A,,Mostly Cloudy,210,2012-10-08 12:51:00
9:51 AM,43.0,37.0,80,30.26,10.0,SW,5.8,-,N/A,,Mostly Cloudy,230,2012-10-08 13:51:00
10:51 AM,46.9,36.0,66,30.28,10.0,SW,8.1,-,N/A,,Mostly Cloudy,220,2012-10-08 14:51:00
11:51 AM,48.0,32.0,54,30.27,10.0,Variable,6.9,-,N/A,,Mostly Cloudy,0,2012-10-08 15:51:00
12:51 PM,50.0,32.0,50,30.25,10.0,WSW,5.8,-,N/A,,Mostly Cloudy,250,2012-10-08 16:51:00
1:51 PM,50.0,30.9,48,30.24,10.0,Variable,4.6,-,N/A,,Mostly Cloudy,0,2012-10-08 17:51:00
2:51 PM,50.0,32.0,50,30.22,10.0,SSE,4.6,-,N/A,,Mostly Cloudy,160,2012-10-08 18:51:00
3:51 PM,52.0,34.0,50,30.21,10.0,SW,12.7,17.3,N/A,,Mostly Cloudy,220,2012-10-08 19:51:00
4:51 PM,51.1,33.1,50,30.20,10.0,South,10.4,-,N/A,,Mostly Cloudy,180,2012-10-08 20:51:00
5:51 PM,50.0,35.1,57,30.20,10.0,SSE,9.2,-,N/A,,Mostly Cloudy,160,2012-10-08 21:51:00
6:51 PM,46.9,34.0,61,30.20,10.0,South,8.1,-,N/A,,Partly Cloudy,170,2012-10-08 22:51:00
7:51 PM,44.1,34.0,68,30.20,10.0,SSE,6.9,-,N/A,,Clear,150,2012-10-08 23:51:00
8:51 PM,43.0,34.0,71,30.21,10.0,SSE,8.1,-,N/A,,Clear,160,2012-10-09 00:51:00
9:51 PM,41.0,35.1,79,30.22,10.0,SSE,8.1,-,N/A,,Clear,160,2012-10-09 01:51:00
10:51 PM,39.9,35.1,83,30.22,10.0,SSE,6.9,-,N/A,,Clear,160,2012-10-09 02:51:00
11:51 PM,39.0,34.0,82,30.22,10.0,SSE,6.9,-,N/A,,Clear,160,2012-10-09 03:51:00